Date String (YYYY-MM-DD hh:mm:ss) UTC,Instrument flags,Ambient pressure (hPa),Sample flow (lpm),Bypass flow (lpm),Sample temperature (°C),Ambient temperature (°C),ASC tube jacket temperature (°C),LED temperature (°C),Box temperature (°C),Sample RH (%),Span deviation,Mass concentration (μg/m³),Mass concentration (μg/m³),Mass concentration (μg/m³)
DateTimeUTC,F1_M11,P_M11,Q1_M11,Q2_M11,T1_M11,T2_M11,T3_M11,T4_M11,T5_M11,U1_M11,ZSPAN_M11,X0_M11,X2_M11,X1_M11
2022-10-26 11:00:00,,0824.4,5.02,0.00,22.1,20.7,00.0,30.8,24.0,14.9,0000.0,0007.16,0001.99,0001.31
2022-10-26 11:01:00,,0824.2,4.98,0.00,22.1,20.7,00.0,30.8,24.0,14.9,0000.0,0006.97,0001.97,0001.30
2022-10-26 11:02:00,,0824.3,5.01,0.00,22.1,20.7,00.0,30.8,24.0,14.9,0000.0,0005.73,0001.94,0001.30
2022-10-26 11:03:00,,0824.3,5.01,0.00,22.1,20.7,00.0,30.8,24.0,14.9,0000.0,0005.70,0001.95,0001.31
2022-10-26 11:04:00,,0824.3,4.98,0.00,22.1,20.7,00.0,30.8,24.0,15.1,0000.0,0005.63,0001.91,0001.32
2022-10-26 11:05:00,,0824.3,5.02,0.00,22.1,20.7,00.0,30.8,24.0,15.1,0000.0,0006.09,0001.90,0001.33
2022-10-26 11:06:00,,0824.3,4.97,0.00,22.1,20.7,00.0,30.9,24.0,15.1,0000.0,0006.09,0001.84,0001.32
2022-10-26 11:07:00,,0824.3,5.00,0.00,22.1,20.7,00.0,30.9,24.0,15.1,0000.0,0006.11,0001.84,0001.32
2022-10-26 11:08:00,,0824.3,5.00,0.00,22.1,20.7,00.0,30.9,24.0,15.2,0000.0,0005.98,0001.81,0001.33
2022-10-26 11:09:00,,0824.2,5.01,0.00,22.1,20.7,00.0,30.9,24.0,15.2,0000.0,0006.39,0001.81,0001.33
2022-10-26 11:10:00,,0824.3,5.01,0.00,22.1,20.7,00.0,30.9,24.0,15.2,0000.0,0005.45,0001.85,0001.32
2022-10-26 11:11:00,,0824.2,4.98,0.00,22.1,20.8,00.0,30.9,24.0,15.2,0000.0,0005.97,0001.89,0001.32
2022-10-26 11:12:00,,0824.2,5.01,0.00,22.1,20.8,00.0,30.9,24.1,15.3,0000.0,0006.04,0001.91,0001.32
2022-10-26 11:13:00,,0824.2,5.01,0.00,22.1,20.8,00.0,30.9,24.1,15.3,0000.0,0006.48,0001.94,0001.33
2022-10-26 11:14:00,,0824.2,5.01,0.00,22.1,20.8,00.0,30.9,24.1,15.2,0000.0,0006.72,0001.96,0001.33
2022-10-26 11:15:00,,0824.1,4.97,0.00,22.1,20.8,00.0,30.9,24.0,15.5,0000.0,0006.68,0001.97,0001.33
2022-10-26 11:16:00,,0824.1,5.02,0.00,22.1,20.8,00.0,30.9,24.1,15.8,0000.0,0007.23,0002.03,0001.35
2022-10-26 11:17:00,,0824.1,4.98,0.00,22.1,20.8,00.0,30.9,24.1,15.8,0000.0,0006.65,0002.09,0001.38
2022-10-26 11:18:00,,0824.1,5.00,0.00,22.2,20.8,00.0,30.9,24.1,16.0,0000.0,0006.78,0002.12,0001.40
2022-10-26 11:19:00,,0824.1,5.00,0.00,22.2,20.8,00.0,30.9,24.1,16.0,0000.0,0007.74,0002.16,0001.43
2022-10-26 11:20:00,,0824.1,5.00,0.00,22.2,20.8,00.0,30.9,24.1,15.8,0000.0,0008.04,0002.23,0001.46
2022-10-26 11:21:00,,0824.1,5.00,0.00,22.2,20.8,00.0,30.9,24.1,15.8,0000.0,0008.13,0002.25,0001.49
2022-10-26 11:22:00,,0824.1,5.00,0.00,22.2,20.8,00.0,30.9,24.1,15.9,0000.0,0007.98,0002.25,0001.51
2022-10-26 11:23:00,,0824.1,4.99,0.00,22.2,20.8,00.0,30.9,24.1,15.9,0000.0,0008.41,0002.28,0001.54
2022-10-26 11:24:00,,0824.1,5.00,0.00,22.2,20.8,00.0,30.9,24.1,16.0,0000.0,0008.86,0002.33,0001.58
2022-10-26 11:25:00,,0824.1,4.99,0.00,22.2,20.8,00.0,31.0,24.1,16.0,0000.0,0009.43,0002.34,0001.62
2022-10-26 11:26:00,,0824.1,5.00,0.00,22.2,20.9,00.0,31.0,24.1,16.1,0000.0,0009.72,0002.34,0001.66
2022-10-26 11:27:00,,0824.1,5.00,0.00,22.2,20.9,00.0,31.0,24.2,16.1,0000.0,0009.76,0002.39,0001.69
2022-10-26 11:28:00,,0824.1,5.00,0.00,22.2,20.9,00.0,31.0,24.2,16.1,0000.0,0010.03,0002.43,0001.72
2022-10-26 11:29:00,,0824.1,5.00,0.00,22.2,20.9,00.0,31.0,24.2,16.0,0000.0,0010.59,0002.52,0001.75
2022-10-26 11:30:00,,0824.1,5.01,0.00,22.2,20.9,00.0,31.0,24.2,16.0,0000.0,0009.94,0002.54,0001.75
2022-10-26 11:31:00,,0824.1,4.97,0.00,22.2,20.9,00.0,31.0,24.2,15.9,0000.0,0009.66,0002.58,0001.76
2022-10-26 11:32:00,,0824.1,5.02,0.00,22.2,20.9,00.0,31.0,24.2,15.9,0000.0,0009.36,0002.52,0001.77
2022-10-26 11:33:00,,0824.1,4.99,0.00,22.2,20.9,00.0,31.0,24.2,16.0,0000.0,0009.74,0002.52,0001.79
2022-10-26 11:34:00,,0824.1,5.02,0.00,22.2,20.9,00.0,31.0,24.2,16.0,0000.0,0009.46,0002.54,0001.79
2022-10-26 11:35:00,,0824.1,4.98,0.00,22.2,20.9,00.0,31.0,24.2,16.0,0000.0,0008.78,0002.52,0001.79
2022-10-26 11:36:00,,0824.1,5.00,0.00,22.2,20.9,00.0,31.0,24.2,16.0,0000.0,0008.06,0002.49,0001.79
2022-10-26 11:37:00,,0824.1,5.00,0.00,22.2,20.9,00.0,31.0,24.2,15.9,0000.0,0007.68,0002.49,0001.78
2022-10-26 11:38:00,,0824.1,5.00,0.00,22.2,20.9,00.0,31.0,24.2,15.9,0000.0,0007.02,0002.49,0001.77
2022-10-26 11:39:00,,0824.1,5.00,0.00,22.2,20.9,00.0,31.0,24.2,15.8,0000.0,0006.73,0002.41,0001.75
2022-10-26 11:40:00,,0824.1,5.00,0.00,22.2,20.9,00.0,31.0,24.2,15.6,0000.0,0006.28,0002.29,0001.72
2022-10-26 11:41:00,,0824.1,5.00,0.00,22.3,20.9,00.0,31.0,24.2,15.3,0000.0,0007.44,0002.26,0001.71
2022-10-26 11:42:00,,0824.0,5.00,0.00,22.3,20.9,00.0,31.0,24.2,15.2,0000.0,0007.70,0002.23,0001.69
2022-10-26 11:43:00,,0824.1,5.01,0.00,22.3,20.9,00.0,31.0,24.2,15.3,0000.0,0007.58,0002.24,0001.67
2022-10-26 11:44:00,,0824.1,4.99,0.00,22.2,20.9,00.0,31.0,24.2,15.4,0000.0,0007.10,0002.27,0001.66
2022-10-26 11:45:00,,0824.1,5.01,0.00,22.3,20.9,00.0,31.0,24.2,15.1,0000.0,0006.98,0002.23,0001.63
2022-10-26 11:46:00,,0824.1,4.98,0.00,22.3,20.9,00.0,31.0,24.2,14.9,0000.0,0007.11,0002.20,0001.60
2022-10-26 11:47:00,,0824.1,5.02,0.00,22.3,20.9,00.0,31.0,24.2,15.1,0000.0,0007.58,0002.22,0001.57
2022-10-26 11:48:00,,0824.1,5.01,0.00,22.3,20.9,00.0,31.0,24.2,15.1,0000.0,0007.64,0002.27,0001.55
2022-10-26 11:49:00,,0824.1,5.01,0.00,22.3,20.9,00.0,31.0,24.2,14.9,0000.0,0007.67,0002.26,0001.50
2022-10-26 11:50:00,,0824.1,4.98,0.00,22.3,20.8,00.0,31.0,24.2,14.9,0000.0,0007.22,0002.23,0001.48
2022-10-26 11:51:00,,0824.1,5.00,0.00,22.3,20.8,00.0,31.1,24.2,14.9,0000.0,0007.07,0002.22,0001.46
2022-10-26 11:52:00,,0824.1,5.02,0.00,22.3,20.8,00.0,31.1,24.2,15.0,0000.0,0005.84,0002.21,0001.45
2022-10-26 11:53:00,,0824.1,4.98,0.00,22.2,20.8,00.0,31.0,24.2,14.9,0000.0,0005.92,0002.21,0001.45
2022-10-26 11:54:00,,0824.1,5.01,0.00,22.3,20.8,00.0,31.0,24.2,15.0,0000.0,0006.31,0002.20,0001.44
2022-10-26 11:55:00,,0824.1,4.99,0.00,22.2,20.8,00.0,31.1,24.2,14.9,0000.0,0007.54,0002.17,0001.42
2022-10-26 11:56:00,,0824.1,5.01,0.00,22.2,20.8,00.0,31.0,24.1,14.9,0000.0,0008.42,0002.14,0001.42
2022-10-26 11:57:00,,0824.1,4.99,0.00,22.2,20.8,00.0,31.0,24.1,14.9,0000.0,0008.99,0002.17,0001.42
2022-10-26 11:58:00,,0824.0,5.00,0.00,22.2,20.8,00.0,31.0,24.1,14.9,0000.0,0009.07,0002.15,0001.41
2022-10-26 11:59:00,,0824.0,5.00,0.00,22.2,20.8,00.0,31.0,24.1,15.0,0000.0,0009.08,0002.16,0001.41
